Theta_e
315 314 314 313 313 313 312 312 311 310 309 308 305 306 308 307 307 318 323 322 319 309 304 308 307 303 305 311 310 311 310 309 310 310 311 309 311 309 308 307 305 306 305 305 303 303 300 302 299 301 304 305 308 311 314 309 309 309 303 307 306 319 299 296 297 300 303 303 304 304 304 302 300 300 300 299 297 298 297 294 295 296 299 296 295 294 297
315 314 313 313 313 313 313 312 311 310 309 305 304 306 308 308 309 313 322 323 319 307 301 299 300 303 308 309 309 313 311 309 308 309 310 309 309 308 308 309 311 307 310 308 304 306 297 303 302 301 305 305 314 315 315 315 308 307 304 303 308 302 300 296 292 291 291 295 297 300 301 303 296 295 299 301 301 301 299 298 297 295 296 300 295 291 297
315 314 313 313 313 313 313 312 311 310 309 309 305 306 307 307 311 313 315 318 314 304 305 303 302 304 305 304 305 307 308 310 309 309 309 313 312 311 308 311 311 309 311 308 309 311 307 301 307 309 309 309 315 315 315 316 312 320 328 335 312 303 301 297 290 288 287 289 288 288 291 294 297 300 300 301 300 299 301 296 295 290 301 300 295 294 300
315 314 313 313 313 313 313 312 311 310 309 309 308 307 307 304 299 306 307 310 310 308 311 308 305 303 304 302 305 306 304 308 310 312 311 312 317 313 314 313 312 309 309 306 307 308 311 307 305 307 306 309 312 314 314 314 317 329 333 333 310 306 307 300 294 294 292 293 294 300 304 300 297 298 300 299 301 301 299 295 293 293 299 299 300 304 305
315 314 314 314 313 313 313 312 311 310 308 309 306 306 308 307 301 301 297 305 305 304 306 307 307 303 308 299 305 302 303 305 306 312 307 311 311 312 312 310 308 307 307 305 306 308 307 308 307 306 306 308 310 314 313 313 322 328 320 323 314 307 301 301 300 298 299 300 301 304 305 300 300 298 298 299 300 300 298 296 293 301 299 295 303 308 307
316 315 315 315 314 314 313 312 310 308 308 308 309 303 304 296 302 306 306 299 294 300 302 307 306 309 309 303 306 303 303 304 303 309 310 311 312 306 309 310 310 310 307 307 304 305 305 305 303 306 306 306 309 309 312 311 319 318 312 315 308 304 301 306 302 300 302 301 302 303 302 302 302 300 299 298 298 299 298 296 300 304 300 296 303 307 307
316 315 316 316 315 315 315 313 310 308 307 308 309 301 304 303 303 305 309 300 303 303 305 308 307 306 307 305 305 302 302 300 304 305 305 308 307 309 303 306 309 309 310 308 304 303 299 300 305 304 304 305 305 304 308 312 313 312 310 311 311 303 298 303 302 302 301 302 301 302 301 301 301 301 301 299 299 298 298 303 306 305 302 306 307 307 309
315 315 316 316 316 315 315 314 311 309 307 311 309 305 300 299 298 299 305 306 303 305 306 307 306 302 307 300 303 303 302 301 303 306 304 301 304 308 304 304 307 308 309 307 303 305 305 304 301 306 304 304 305 303 308 306 310 311 308 309 309 304 299 312 303 298 300 301 302 301 301 301 299 300 300 301 299 299 299 305 308 310 305 306 308 307 307
315 315 316 316 316 315 315 314 312 309 308 308 307 306 307 305 307 306 301 299 302 307 305 303 302 299 301 299 302 303 302 301 303 304 307 304 302 305 303 306 305 308 308 307 306 309 308 307 307 307 306 301 307 304 306 309 306 308 307 308 308 307 302 304 301 297 296 300 300 300 301 300 302 299 300 300 302 301 300 300 302 305 305 307 307 304 305
315 316 316 316 315 315 315 314 313 310 309 306 304 304 309 307 309 309 304 297 307 301 303 303 301 297 301 303 302 302 302 304 305 300 306 308 308 307 308 308 305 304 305 304 306 309 310 310 311 310 310 309 309 309 310 310 307 306 306 308 304 306 303 299 298 294 295 298 300 299 299 297 295 297 300 301 300 302 302 305 308 309 311 307 304 304 310
316 316 316 316 315 315 315 314 313 311 308 302 302 304 307 304 302 303 303 297 299 300 300 299 300 303 303 304 303 306 305 305 306 300 300 307 307 310 310 307 304 302 303 306 312 313 313 313 313 312 311 310 309 309 310 311 311 310 308 306 306 306 305 300 303 296 296 299 300 300 294 289 291 300 307 307 304 303 302 303 306 310 312 310 310 310 311
315 315 315 315 315 315 315 314 313 313 310 306 304 305 309 308 305 303 298 293 295 301 299 297 300 302 302 303 304 303 303 303 303 306 301 304 306 309 308 307 305 300 308 312 313 313 315 315 314 312 311 310 311 311 310 309 311 313 312 308 304 304 304 301 304 300 296 299 300 293 289 290 300 306 308 311 310 308 306 306 308 310 311 312 309 310 312
315 315 314 314 314 314 314 314 313 312 311 307 305 303 308 311 305 301 299 296 293 297 297 298 303 303 303 304 303 303 304 305 305 306 305 304 304 307 307 306 304 306 312 310 311 310 307 305 306 306 307 309 310 310 309 308 309 310 311 310 306 303 302 302 301 303 301 296 293 288 290 300 305 306 312 316 312 309 307 305 307 312 310 309 309 311 314
314 314 314 314 314 314 314 314 313 313 311 309 305 305 307 309 303 300 300 297 296 300 301 299 301 301 302 302 302 303 304 303 304 305 303 306 304 305 307 308 308 311 312 311 308 307 302 302 299 301 302 304 302 302 305 307 308 308 309 309 309 306 305 303 298 304 297 297 296 295 302 301 303 305 310 311 307 305 303 298 303 312 309 310 310 311 314
314 314 314 314 314 314 314 314 313 313 312 310 306 305 306 309 308 303 303 299 295 298 300 295 298 300 302 302 303 300 300 300 300 300 305 307 306 307 307 309 311 311 315 308 303 306 303 301 296 296 298 296 292 296 306 305 309 309 308 308 308 306 303 300 298 298 301 294 292 292 292 292 298 310 316 317 316 311 309 304 305 314 315 314 313 313 314
314 314 314 314 315 314 314 314 313 313 312 310 306 304 306 310 311 307 303 299 297 293 298 303 303 302 300 301 303 301 298 298 298 299 299 302 305 306 308 309 311 314 315 312 307 304 302 297 295 295 293 296 302 300 298 305 304 310 314 309 308 308 307 306 299 297 299 296 291 292 292 294 307 311 316 318 317 314 309 304 301 311 316 318 316 315 317
314 314 314 314 314 314 313 313 313 312 312 311 305 304 304 309 309 306 302 300 299 296 303 305 304 304 300 300 302 300 300 297 298 295 295 298 302 304 305 308 311 313 312 309 305 302 298 297 298 297 298 303 299 299 303 301 300 304 311 313 309 307 304 304 301 299 299 296 293 292 298 301 311 315 317 319 321 315 308 297 298 312 317 319 318 318 319
314 314 313 313 313 313 313 312 312 313 312 311 307 302 303 310 310 310 305 301 296 296 302 306 302 299 299 300 299 303 304 301 300 301 299 300 303 301 303 306 304 310 314 305 305 299 299 298 295 295 293 306 307 305 294 301 299 300 302 305 303 303 304 302 297 296 299 301 295 297 300 313 317 318 320 323 317 313 302 295 306 315 319 319 320 320 321
314 313 313 313 313 313 313 312 312 312 312 311 308 305 305 308 310 312 306 304 301 296 303 307 308 305 308 309 306 306 306 304 301 296 295 295 298 304 305 308 308 300 308 304 302 300 299 298 302 300 297 299 305 298 303 298 299 304 305 302 301 302 304 302 299 296 295 295 295 295 303 313 318 320 321 323 311 302 300 315 320 319 319 320 321 321 322
313 313 313 313 313 313 313 313 312 312 312 311 308 302 305 308 311 310 308 302 304 301 304 304 306 304 308 305 301 300 303 302 301 298 296 293 300 304 299 295 300 305 305 306 299 303 299 297 299 302 297 297 301 307 299 301 307 304 303 306 302 302 301 298 297 301 300 297 296 293 289 306 320 319 319 322 310 311 319 323 324 322 320 321 321 322 321
313 312 312 312 312 313 313 313 312 312 311 311 310 304 303 307 309 310 311 307 303 299 301 309 309 308 308 307 308 308 305 301 302 298 300 299 302 300 289 292 297 301 301 302 297 299 301 298 300 300 303 302 302 302 296 298 302 309 308 305 306 309 301 297 301 307 297 295 292 291 306 313 319 319 313 317 319 321 324 325 323 323 321 321 322 321 323
313 313 313 313 312 312 312 312 312 311 311 311 310 306 301 306 308 311 311 309 303 302 304 309 310 309 311 312 312 312 310 309 310 309 303 300 302 302 300 303 305 305 307 308 306 306 306 304 306 302 298 300 304 298 300 295 293 303 310 308 299 309 306 306 299 308 304 300 303 311 314 316 320 322 320 320 323 325 328 328 327 325 323 323 322 321 322
312 312 313 313 312 312 312 312 312 311 311 311 309 305 303 305 306 310 309 303 306 309 311 310 311 311 313 314 316 315 315 316 314 313 310 303 299 302 302 303 301 310 313 311 303 302 303 303 300 304 301 303 300 299 298 300 296 302 301 310 308 314 314 313 312 309 313 315 316 319 318 319 320 323 325 323 324 327 328 328 326 328 329 326 321 324 323
312 313 313 313 312 312 312 312 311 311 311 311 310 305 304 305 307 308 308 307 303 302 305 308 304 302 305 307 311 315 314 314 315 315 315 310 300 298 303 307 308 310 308 310 311 304 302 304 303 305 298 304 305 299 296 294 297 303 303 304 309 314 315 313 308 311 302 298 311 316 317 319 320 320 323 325 326 326 328 328 329 328 329 329 330 326 325
312 313 313 312 312 312 311 311 311 311 311 311 310 309 309 307 308 308 305 301 304 302 297 300 303 309 312 313 314 313 314 316 317 315 315 313 308 302 300 305 310 303 302 306 311 307 306 302 302 302 297 305 306 298 305 300 298 307 301 303 305 307 316 312 312 310 301 303 313 317 320 320 322 321 320 321 324 326 328 331 331 330 330 331 332 331 328
312 312 313 313 312 311 311 311 311 311 312 311 311 306 304 304 307 309 308 310 309 305 298 296 301 311 313 311 310 312 316 316 316 316 316 314 313 311 308 311 309 312 309 311 309 306 303 302 304 302 300 301 310 301 299 306 306 309 305 304 309 311 316 307 312 308 309 313 315 319 319 318 320 323 323 324 324 326 329 331 331 331 329 331 332 330 330
312 312 312 312 312 312 311 311 311 311 312 312 309 307 305 306 309 307 305 306 301 297 298 296 301 307 310 307 311 314 316 316 315 315 314 314 313 311 310 309 306 307 306 306 308 307 306 303 302 299 304 302 309 306 307 304 305 304 303 308 314 312 306 312 311 307 303 306 312 318 308 309 316 320 323 324 326 329 331 334 331 330 330 331 331 328 330
312 312 312 312 312 312 312 311 311 312 312 312 310 308 307 306 309 311 312 310 301 295 297 299 300 304 310 307 313 314 314 316 316 314 313 315 317 315 314 309 307 307 305 303 301 303 303 301 300 305 308 311 305 302 308 307 309 305 305 306 312 309 310 310 306 304 304 312 317 319 316 315 319 323 328 328 328 330 332 332 333 333 333 333 332 330 326
312 312 312 312 312 312 312 312 312 312 312 311 308 306 307 309 311 313 314 317 310 305 304 304 306 304 299 305 312 312 316 317 315 314 314 314 315 314 312 311 310 309 308 306 304 303 301 302 306 304 303 311 306 301 305 297 299 297 302 311 313 316 318 316 316 315 317 319 320 320 318 317 321 324 325 326 327 329 331 334 336 334 332 331 332 332 329
312 312 312 312 312 312 312 312 312 312 312 308 304 303 303 309 312 313 315 317 311 307 301 300 296 301 309 310 309 313 314 318 316 315 316 314 314 313 312 310 309 314 308 305 304 300 303 304 307 309 312 316 308 306 302 299 298 299 309 313 316 318 320 319 321 317 314 319 319 321 321 321 323 323 323 323 326 328 330 333 334 333 331 332 331 331 332
312 312 312 312 312 312 312 312 313 313 312 307 304 301 300 297 306 314 313 315 313 308 305 305 300 305 304 310 310 310 314 316 314 314 315 315 315 314 314 313 311 312 305 305 304 302 306 301 303 306 314 315 312 305 301 300 296 298 306 311 314 315 317 320 323 322 321 320 321 323 323 323 323 321 321 323 325 325 327 331 334 337 336 334 334 332 330
312 312 312 312 312 312 313 313 313 313 308 304 300 303 304 306 309 312 313 313 312 306 301 299 299 299 299 305 311 316 317 317 318 318 313 318 312 316 313 313 310 312 308 303 306 305 304 305 305 306 305 314 312 304 302 299 299 301 308 312 313 316 318 318 320 323 325 325 323 318 317 318 321 320 318 324 327 329 330 331 333 335 339 337 336 336 334
312 312 312 312 313 313 313 313 313 312 308 310 313 313 312 312 313 313 312 309 308 304 307 303 298 300 297 301 310 315 318 314 311 312 308 316 311 314 310 314 312 310 325 308 300 298 307 309 309 304 308 312 306 304 300 299 301 306 309 312 314 316 317 320 322 323 322 322 323 315 314 317 319 322 323 325 328 330 331 333 335 336 335 333 332 332 332
312 312 312 313 313 313 313 313 314 313 312 308 304 306 313 314 313 313 311 310 305 307 307 302 300 299 299 308 303 310 318 308 306 308 303 313 313 311 308 310 311 305 309 304 306 306 308 311 305 305 309 307 308 303 297 301 305 307 309 310 313 315 318 319 317 317 319 320 322 323 322 324 325 324 324 326 327 330 333 334 335 333 331 330 329 330 331
312 312 313 313 313 313 313 313 309 307 302 305 306 311 313 315 314 313 311 308 300 300 301 301 301 297 298 299 299 305 319 311 305 308 304 307 316 309 309 304 306 301 304 313 305 304 303 304 307 302 298 305 303 297 301 304 308 310 311 313 315 316 317 315 318 319 321 322 323 323 323 326 325 322 321 325 327 328 330 331 332 333 331 330 329 329 330
312 313 313 313 313 313 310 310 307 307 304 305 310 317 318 316 314 312 313 313 307 301 300 301 302 297 297 294 295 305 318 308 310 310 309 310 308 314 311 305 297 302 312 305 299 303 301 310 305 298 303 300 299 302 304 308 309 310 311 313 316 316 316 318 319 321 322 323 324 323 324 325 323 321 323 326 326 327 328 329 330 331 331 331 329 329 329
312 312 313 313 311 310 306 309 311 310 311 314 319 320 320 319 318 317 314 312 314 315 306 303 298 299 299 299 303 309 311 302 308 305 307 306 303 309 306 301 297 306 306 302 303 301 304 315 304 299 298 298 301 309 311 312 311 310 310 314 316 318 319 320 324 324 322 322 321 320 321 321 322 322 324 324 325 326 327 327 328 328 328 328 327 326 328
312 312 308 308 309 306 308 311 313 314 320 320 319 312 309 311 304 308 309 307 312 312 307 306 300 303 306 302 299 309 308 303 307 302 302 309 302 301 308 303 304 305 295 298 303 312 309 305 302 299 299 303 308 311 312 313 315 317 317 317 318 318 319 320 321 321 320 318 317 318 321 321 321 322 323 323 324 324 324 326 327 329 329 330 330 328 327
311 309 310 310 308 304 305 310 316 318 316 316 314 307 304 307 305 303 305 308 309 303 308 304 301 305 303 301 304 313 309 304 302 302 298 305 302 298 304 297 304 303 292 296 301 311 300 298 300 300 297 303 306 311 314 315 316 316 318 319 319 318 320 322 323 321 320 320 318 320 320 319 321 321 322 322 322 323 324 326 328 329 329 330 330 329 328
307 303 303 303 304 306 312 314 315 312 312 307 308 304 302 307 300 297 309 302 300 306 306 300 306 306 307 304 303 302 314 308 300 298 299 303 309 298 304 301 304 300 293 294 298 309 298 294 296 298 297 301 303 309 312 315 315 316 317 319 321 321 322 323 324 325 325 325 324 322 324 325 328 325 325 325 325 325 326 328 329 330 331 332 331 329 328
303 302 301 301 302 303 306 308 309 310 307 304 304 305 303 297 304 305 304 299 297 300 308 305 308 305 308 309 306 303 312 315 310 311 306 301 310 308 301 298 308 298 296 295 303 305 301 298 297 297 298 302 305 310 314 315 315 316 319 319 320 320 320 321 324 325 325 324 324 324 325 327 328 328 328 327 326 326 326 328 329 330 330 330 329 328 328
303 301 302 305 305 306 306 306 306 307 308 307 300 294 296 300 305 304 304 295 296 303 308 308 303 303 302 309 308 308 308 316 312 311 304 300 308 302 299 301 303 298 294 302 307 304 301 296 296 297 302 306 312 314 315 314 315 316 319 318 319 321 322 322 323 325 326 325 326 324 324 323 323 324 324 324 326 327 328 328 328 329 329 330 330 329 328
311 310 309 305 306 304 306 297 306 306 291 290 291 286 293 292 297 297 299 305 308 304 304 313 308 309 313 316 310 310 309 315 307 306 303 299 307 307 301 299 299 293 300 309 304 300 297 296 296 299 306 310 313 314 315 315 317 318 319 321 321 323 323 323 323 324 324 323 322 322 323 323 323 324 328 328 327 327 327 329 329 328 328 329 329 330 329
308 307 304 304 302 306 303 287 306 304 292 292 287 286 292 293 294 297 296 296 300 299 303 302 303 303 300 310 308 308 311 311 312 307 304 306 303 299 299 294 296 302 310 304 301 296 297 300 303 305 309 312 315 316 316 317 318 318 319 322 323 323 322 322 322 322 321 322 322 322 324 324 324 326 327 327 328 327 328 328 329 328 328 328 328 328 329
303 304 303 299 291 297 293 285 298 293 286 290 295 295 296 294 295 297 296 302 303 301 304 306 305 305 303 308 311 310 307 303 312 302 300 303 299 300 297 296 302 304 301 294 295 296 299 300 305 307 310 311 313 316 317 318 318 318 320 321 321 321 317 318 320 321 320 320 320 322 323 323 323 323 324 324 325 326 326 326 327 327 327 327 327 327 327
301 294 292 287 288 288 287 284 287 284 294 298 298 300 298 300 300 300 303 306 303 303 303 305 305 306 303 307 304 303 308 307 302 303 306 304 297 294 302 308 307 298 298 296 295 294 298 302 306 308 311 313 315 316 317 318 319 319 320 318 320 321 321 322 321 321 321 321 322 322 322 322 322 322 322 324 325 326 326 326 326 326 326 325 325 325 326
301 303 297 290 287 287 297 288 289 294 298 299 300 302 301 302 304 305 306 306 303 306 306 307 305 305 302 304 306 306 308 307 301 304 305 299 298 300 309 304 295 296 294 294 296 298 301 305 308 310 313 315 316 317 317 318 320 319 318 318 320 321 321 321 320 320 321 323 323 322 322 322 322 323 323 323 324 325 326 327 328 328 327 326 326 326 326
292 300 298 287 285 289 290 294 300 300 301 302 302 302 304 306 303 302 306 307 307 305 304 303 302 302 300 308 305 300 302 305 300 299 303 301 304 301 294 300 297 300 300 298 298 302 304 307 309 311 314 317 317 316 317 317 317 318 318 319 319 320 321 321 320 320 321 321 321 321 321 322 322 323 323 324 324 325 326 327 327 326 326 325 325 325 324
304 297 287 286 294 296 296 299 299 297 300 301 301 300 301 301 301 303 305 307 304 303 305 304 303 303 298 302 301 300 298 304 295 295 303 301 296 293 294 293 296 296 302 305 304 306 307 310 313 315 315 316 316 317 317 319 319 318 318 319 319 320 321 322 322 322 322 321 322 322 322 322 322 322 323 323 323 323 325 326 324 324 324 323 323 323 323
295 292 298 296 295 297 300 300 297 295 296 299 299 298 300 300 300 302 306 305 305 304 304 304 307 302 299 301 291 296 297 303 302 299 298 296 299 300 298 295 298 297 300 306 307 309 311 313 314 314 315 316 316 316 316 317 320 318 318 318 320 322 322 323 322 323 322 322 322 321 321 322 322 322 322 322 323 324 325 324 323 322 321 321 321 320 320
301 299 293 301 297 296 297 293 292 294 296 297 297 299 300 299 301 301 307 307 305 302 300 299 299 298 290 290 290 288 296 304 301 300 299 298 302 299 297 296 300 303 305 309 311 312 312 313 313 313 313 314 315 317 317 318 319 320 321 322 322 323 322 323 324 324 323 324 324 326 321 322 323 324 324 325 325 324 323 323 322 321 320 319 319 318 317
291 288 291 298 301 301 300 300 299 299 299 300 299 301 303 301 303 305 309 306 303 299 298 300 299 292 290 291 297 300 302 300 297 299 297 302 304 299 300 302 304 306 307 309 310 312 314 315 315 315 314 315 317 316 318 319 320 320 319 320 321 321 321 321 321 322 322 322 322 322 323 323 323 324 325 324 323 321 319 319 320 320 319 318 317 317 316
Wind_Speed
24 25 26 27 28 29 30 31 29 27 28 11 8 3 4 5 2 5 5 2 4 4 1 2 1 2 5 5 7 9 8 8 7 7 3 5 4 6 4 7 10 8 8 8 6 3 3 4 2 2 2 2 9 11 15 11 8 7 2 6 6 6 3 3 3 6 4 3 4 5 2 3 2 2 3 5 5 7 7 7 5 5 0 5 2 3 2
23 24 25 27 28 29 30 31 31 27 21 6 5 2 2 2 2 6 4 2 2 4 2 6 7 6 7 6 7 4 5 5 7 6 5 3 4 3 4 8 10 8 11 8 10 11 5 2 5 4 7 6 9 18 22 19 1 2 4 7 7 6 2 5 1 1 4 8 6 1 2 1 2 3 3 6 7 6 6 3 2 5 5 7 7 5 3
23 24 25 27 28 29 30 31 32 32 25 12 1 3 2 3 3 3 5 7 4 2 2 3 5 7 8 8 7 9 5 6 9 12 6 5 3 1 4 2 10 9 10 8 7 9 8 3 8 4 8 9 6 17 19 16 9 12 3 3 9 7 3 5 4 5 3 2 0 4 4 6 4 2 3 5 4 6 0 4 0 3 1 3 5 2 4
23 23 25 26 27 28 29 31 33 32 29 18 1 1 2 3 3 6 6 6 6 3 4 3 4 6 9 12 6 7 7 6 8 13 6 9 2 4 1 9 12 15 15 12 9 11 8 7 4 8 9 12 4 10 13 12 15 20 19 15 3 1 1 4 6 8 8 8 4 5 2 0 1 2 5 4 6 3 4 5 2 4 4 4 4 9 7
22 23 25 26 26 27 28 30 32 33 31 24 2 3 1 1 5 4 7 8 3 4 3 9 8 7 9 4 3 6 7 7 4 10 4 9 7 3 8 10 12 10 13 9 7 7 7 7 9 11 9 11 10 15 11 10 19 23 11 15 4 0 1 4 6 7 9 10 9 4 1 2 5 6 6 8 8 4 5 5 6 5 10 1 2 10 15
22 23 24 25 26 27 28 29 31 32 29 31 3 6 5 5 2 3 1 2 4 8 7 10 11 12 9 4 4 6 8 8 6 4 5 7 8 6 3 9 7 7 10 8 6 13 5 6 10 10 8 13 17 14 18 3 15 19 11 8 5 3 1 1 3 3 1 2 5 5 3 4 3 4 4 5 7 5 5 5 6 12 10 10 8 12 14
22 23 23 25 26 27 27 28 29 31 31 21 6 7 5 3 2 1 7 2 2 2 10 13 10 10 7 2 8 9 12 12 10 4 5 4 8 10 3 8 5 6 9 8 5 9 10 8 7 6 10 10 9 10 12 7 14 15 12 10 1 3 1 2 2 1 2 2 3 6 5 2 3 4 5 5 4 5 6 4 9 11 8 13 16 11 13
23 22 23 25 26 27 27 27 28 30 28 15 12 11 5 5 4 5 5 2 4 5 6 6 7 3 6 3 9 6 9 9 10 7 7 5 6 8 10 11 6 7 6 8 6 7 5 4 7 8 8 9 5 7 1 7 13 13 10 8 6 5 5 11 2 2 2 3 6 5 1 3 4 5 4 3 3 4 2 8 11 4 5 5 16 11 9
22 23 24 24 24 27 27 25 27 29 24 8 8 6 6 3 1 2 4 6 5 4 6 7 7 4 10 8 9 7 12 8 8 2 2 7 6 7 10 11 9 6 13 12 12 10 10 7 6 7 4 7 3 2 5 4 11 13 8 5 8 6 6 5 5 2 2 2 4 5 5 4 1 4 7 5 1 2 1 2 5 5 8 11 12 7 8
22 22 23 22 22 23 24 24 25 25 19 5 4 8 6 1 1 2 1 1 3 5 6 5 5 8 6 7 10 9 9 7 10 5 5 10 11 10 10 9 8 8 14 14 13 14 13 12 8 6 6 5 8 7 10 10 7 5 6 4 5 2 4 6 5 4 1 4 1 4 4 6 6 5 6 6 5 4 2 1 9 11 16 14 13 13 11
21 21 22 21 21 21 22 22 23 24 15 8 5 4 7 8 7 5 2 0 5 6 6 5 8 6 8 11 10 12 12 12 10 8 3 9 10 11 12 13 7 2 6 11 14 11 13 12 10 4 5 7 7 7 8 11 9 7 6 4 3 3 3 5 1 1 2 5 4 4 6 3 3 3 2 4 5 7 9 6 6 9 18 12 16 14 9
21 22 21 22 20 20 20 21 21 22 16 6 1 1 4 3 3 1 3 4 3 4 5 4 7 7 10 10 8 10 11 12 10 7 6 5 8 10 12 10 9 5 8 12 12 12 12 7 5 5 4 6 8 9 11 10 11 7 6 6 6 6 5 5 2 1 3 5 5 4 0 3 6 3 3 7 5 8 8 8 7 10 4 12 6 10 16
20 20 21 22 21 20 20 19 19 19 20 9 4 3 5 5 2 3 2 1 2 6 6 7 8 8 9 9 10 10 9 8 10 10 7 8 9 11 9 7 8 8 12 12 13 10 8 7 9 6 7 5 8 7 7 9 9 10 7 6 5 4 3 4 3 0 0 2 2 1 2 5 6 3 10 15 11 12 11 12 4 4 10 13 13 16 18
20 21 22 21 21 20 19 19 20 19 20 13 6 4 4 4 5 4 3 3 4 3 5 5 9 12 13 9 7 8 10 12 11 7 8 7 7 11 11 9 10 10 10 8 6 3 4 4 4 7 7 7 5 1 2 7 9 10 11 9 7 6 2 1 5 0 1 1 1 3 4 4 10 7 9 8 4 8 5 3 3 9 5 4 8 9 11
19 20 20 20 20 19 20 20 20 21 20 17 5 4 5 5 3 2 2 1 2 5 2 5 8 10 10 6 6 7 7 7 10 9 5 5 5 7 7 10 11 11 11 4 3 2 0 1 3 4 5 4 4 3 3 2 3 4 9 11 7 5 4 3 2 3 2 2 4 5 6 0 4 4 10 10 7 7 6 3 4 7 12 2 15 13 12
18 18 19 20 19 20 20 20 20 20 19 19 7 5 5 4 4 1 1 1 1 3 2 5 7 6 5 5 9 4 5 5 6 5 6 7 6 11 8 12 11 9 10 5 1 2 2 1 2 1 1 2 3 3 3 4 5 6 7 4 7 3 3 5 4 2 2 2 1 1 1 1 2 13 13 15 12 11 3 8 6 6 8 11 8 16 16
17 18 18 18 19 20 19 19 20 20 18 17 7 5 4 4 5 4 2 2 2 5 5 5 7 4 2 5 9 5 4 3 4 5 6 8 6 5 11 11 8 8 11 3 5 3 3 1 1 2 3 1 2 1 3 2 5 7 13 8 6 2 1 2 1 1 2 1 2 1 2 2 9 12 13 15 15 6 7 4 5 6 11 6 1 14 11
17 17 18 18 19 19 19 19 19 18 19 19 9 3 4 4 6 4 2 1 2 4 4 6 10 3 4 3 5 5 3 3 5 2 1 4 3 6 7 6 9 6 10 5 5 3 3 1 3 1 1 1 2 1 2 4 3 3 4 5 3 3 4 1 6 5 4 4 2 1 2 2 9 12 15 15 5 7 11 0 5 9 13 4 1 13 17
17 17 18 18 18 18 18 19 18 19 17 18 12 4 2 4 8 5 1 1 2 4 7 8 4 5 3 5 3 4 2 3 3 4 5 6 3 6 7 3 4 6 7 5 3 3 3 2 2 1 1 5 4 1 3 3 1 3 4 6 5 4 1 3 1 3 5 4 3 3 2 2 6 14 10 11 6 5 4 9 11 9 11 3 4 5 13
17 17 17 17 17 17 17 17 19 19 18 17 11 3 8 7 4 6 6 5 3 6 10 7 2 4 4 4 5 4 8 6 2 2 1 3 6 6 7 6 6 3 5 3 5 3 3 4 3 2 3 2 2 1 2 3 2 3 2 2 2 2 1 2 1 3 0 1 2 1 3 4 12 16 5 13 6 2 6 9 14 6 5 4 4 10 7
16 16 17 16 16 16 17 17 18 18 18 16 12 5 6 3 6 7 4 2 5 6 7 4 2 6 4 6 7 7 5 7 5 3 4 4 5 3 3 3 6 3 3 3 4 3 3 4 4 2 2 1 4 2 1 3 6 3 2 1 3 3 2 4 3 2 2 1 3 1 1 5 10 8 8 2 2 5 7 4 12 13 6 2 2 5 11
15 15 15 16 16 16 16 17 17 18 17 16 14 5 3 4 5 5 5 2 3 5 6 7 5 10 11 10 10 9 10 11 13 7 4 5 3 1 1 1 1 1 1 1 2 1 2 2 2 2 3 4 3 1 2 3 2 4 4 2 3 3 3 2 2 4 1 2 2 2 3 3 3 2 1 3 5 2 9 11 9 12 12 3 2 6 5
15 15 15 16 16 16 16 17 17 17 17 16 11 4 5 8 8 7 7 3 4 4 5 6 4 7 8 9 10 12 13 11 11 7 7 5 5 1 1 0 1 0 1 1 1 2 4 1 3 2 3 0 1 4 3 1 1 4 5 2 1 0 1 2 2 0 2 1 2 2 2 2 2 2 4 4 6 12 11 12 12 11 13 13 6 1 1
15 15 15 15 16 16 16 16 17 16 16 15 10 6 6 5 7 6 5 3 2 7 3 2 4 5 5 13 18 12 7 5 7 9 5 3 2 3 2 1 1 1 0 2 4 2 1 1 3 1 1 2 2 2 0 3 1 3 3 4 1 1 5 4 3 2 2 1 4 4 3 3 5 4 1 3 9 11 10 12 11 12 17 17 3 5 4
15 15 15 15 15 16 16 16 16 16 15 15 11 5 6 6 2 4 6 6 6 4 2 7 4 6 6 10 10 7 5 4 5 5 7 5 8 5 4 5 4 3 4 4 0 1 1 1 3 1 1 3 1 3 2 0 4 3 4 4 4 2 3 3 1 0 3 2 3 6 5 4 3 4 7 7 8 12 11 8 10 15 19 18 13 1 6
15 15 15 15 15 16 16 17 16 16 14 14 12 5 4 5 5 5 3 3 3 1 2 5 8 8 8 13 9 6 11 10 9 9 7 10 11 10 6 0 1 0 1 1 3 1 1 1 0 1 0 4 1 1 2 0 5 3 2 6 2 3 4 3 2 1 2 3 3 4 4 4 5 4 3 6 2 11 11 11 14 16 18 23 13 4 4
16 15 15 15 15 16 17 16 17 15 14 11 8 5 5 6 6 4 2 2 3 1 2 3 6 11 10 15 13 8 9 8 9 8 9 3 4 4 3 2 3 1 1 1 0 2 1 1 1 2 2 3 1 3 2 4 1 2 3 4 2 1 1 2 2 0 1 1 1 5 3 1 5 5 5 6 7 9 7 4 11 8 15 19 15 7 4
16 15 15 14 15 15 16 17 17 15 13 13 8 6 5 4 5 3 3 3 1 1 4 5 7 12 12 8 6 7 12 10 8 5 3 2 2 2 0 3 4 2 1 2 1 0 1 0 3 3 2 2 2 4 2 2 0 2 3 4 2 1 1 1 1 1 1 1 2 4 1 4 7 5 5 4 5 3 8 8 8 2 9 12 11 9 6
16 16 14 13 13 15 16 16 16 14 13 10 7 7 4 7 8 6 6 4 2 0 4 6 7 5 2 9 13 11 9 8 4 5 4 3 2 3 4 5 3 2 1 2 2 2 2 3 2 1 1 3 1 4 2 2 1 3 4 3 1 2 3 4 5 3 6 8 5 4 2 2 7 9 7 4 3 4 5 8 7 9 10 12 11 8 5
16 15 13 13 14 16 17 16 15 12 11 6 3 1 3 2 1 4 5 3 2 1 2 5 6 5 4 5 8 8 8 7 6 4 6 6 4 3 3 3 2 3 2 3 4 2 2 2 2 1 1 2 1 2 1 1 1 5 3 3 4 2 2 2 2 3 2 6 11 10 6 8 7 7 7 3 3 3 4 11 9 8 11 11 12 11 11
16 15 14 15 16 17 17 16 13 11 8 3 2 3 2 1 1 4 6 6 3 1 1 2 6 6 7 4 5 9 9 6 5 3 5 5 3 2 2 0 1 2 1 0 1 2 1 2 0 1 0 2 2 1 2 1 3 3 4 4 3 3 2 3 3 4 2 5 10 13 7 6 5 2 5 9 7 4 4 7 9 9 8 11 12 12 11
17 16 15 16 18 17 16 15 12 8 3 1 2 2 1 1 1 5 5 4 5 2 1 4 4 3 3 5 3 5 5 5 4 3 5 2 2 2 4 0 1 1 2 3 2 1 2 4 2 2 0 0 2 1 1 3 4 6 3 5 5 3 3 3 1 2 1 2 2 10 8 6 4 5 3 9 5 5 6 6 6 8 11 10 10 12 13
18 17 16 17 18 18 17 15 13 7 4 6 11 15 20 21 19 16 6 2 2 0 1 1 2 3 2 6 6 5 2 3 2 3 5 3 2 1 2 2 2 2 2 2 1 2 2 2 1 1 1 1 1 1 2 4 6 5 7 8 7 3 2 1 1 2 2 2 1 3 7 2 4 7 10 9 3 5 4 6 6 9 12 14 14 14 14
19 19 18 17 17 17 16 15 12 9 6 3 4 5 5 12 11 17 6 1 1 2 1 1 3 2 5 5 4 3 3 3 5 2 4 3 1 1 1 2 2 1 1 1 2 0 2 1 2 2 1 1 1 1 2 5 6 8 8 8 3 1 1 2 1 2 3 3 2 5 8 7 6 8 12 3 6 4 5 5 8 12 11 11 11 10 9
20 20 20 18 17 16 16 12 3 3 3 3 4 5 2 3 5 9 11 5 1 1 0 1 2 2 4 4 2 5 1 2 4 1 1 4 1 0 1 1 3 1 2 0 1 2 1 3 3 1 4 2 2 1 3 4 6 4 3 1 1 3 2 2 2 2 3 5 4 3 5 5 3 8 8 3 6 5 8 9 7 10 10 9 9 9 9
21 21 19 18 17 10 1 2 1 1 0 1 3 2 8 7 9 5 4 2 1 0 1 1 1 3 2 4 5 3 2 3 3 1 1 1 3 0 1 1 1 4 1 1 2 0 1 1 2 2 1 2 4 4 6 3 3 3 1 1 1 2 1 2 3 4 4 4 3 5 8 5 6 10 5 6 6 7 7 8 8 9 10 10 9 7 8
22 20 20 14 3 3 1 1 2 2 0 1 2 7 5 5 3 2 2 2 1 0 2 1 2 5 4 5 2 3 4 6 2 2 1 2 2 1 0 2 1 1 0 1 1 1 4 0 1 2 1 2 5 4 3 3 3 4 3 3 4 0 0 1 3 4 7 4 5 2 3 9 3 2 7 6 6 6 8 9 6 7 9 9 8 7 7
22 17 3 2 1 1 0 0 1 2 7 5 7 3 1 1 1 1 1 2 1 2 2 1 5 4 2 1 5 4 0 5 1 2 2 1 2 2 0 0 1 1 1 2 3 1 0 0 2 2 4 3 4 0 1 1 1 2 4 1 0 1 1 1 2 3 3 4 1 3 3 2 5 4 6 5 5 7 6 4 5 5 5 7 8 7 6
12 2 1 0 0 1 1 1 5 13 8 2 2 0 1 1 0 1 2 2 2 2 2 3 5 4 3 3 7 3 2 2 4 1 1 1 1 3 1 1 1 1 1 1 1 0 1 2 2 1 3 3 5 3 3 4 2 1 1 3 3 2 3 3 2 2 3 5 1 4 4 5 2 3 3 5 4 4 5 5 6 6 6 6 6 6 7
4 4 2 3 2 2 3 5 11 7 1 1 1 1 0 1 1 1 2 1 1 1 3 4 5 5 7 7 4 6 1 0 3 4 2 4 1 1 1 0 0 1 1 1 1 1 1 1 1 1 3 2 3 3 4 4 4 5 3 3 3 3 2 1 2 2 1 4 7 8 3 6 7 2 5 5 6 7 6 7 6 7 8 8 8 6 3
3 2 3 2 4 4 5 7 5 0 0 0 0 1 0 1 2 2 1 1 2 2 3 4 1 2 2 1 2 4 2 1 1 1 1 1 1 0 1 1 0 1 2 1 1 1 0 1 1 1 3 1 3 5 5 6 4 4 4 2 2 1 1 1 2 2 2 3 3 5 5 4 2 3 4 6 6 6 7 7 7 7 8 8 8 5 3
1 2 3 5 6 6 6 1 1 0 0 1 0 1 1 3 1 1 1 1 1 0 1 2 1 4 4 2 3 1 2 0 0 0 1 2 1 1 2 0 0 0 1 1 1 0 0 1 1 3 3 3 4 4 5 6 4 4 4 2 2 0 0 0 2 3 3 3 3 5 7 14 16 12 9 9 7 6 7 8 8 7 6 5 6 7 5
13 9 4 3 3 2 1 1 1 1 1 0 2 2 1 0 1 1 1 1 1 0 2 1 1 2 1 0 2 2 1 0 0 1 0 2 1 0 1 1 0 1 2 1 1 0 0 1 2 2 3 5 6 6 5 3 2 3 3 2 2 1 1 2 1 6 9 10 8 9 9 10 8 4 3 7 9 9 7 6 5 6 6 7 8 8 7
3 1 0 1 1 2 1 1 1 1 2 0 1 1 1 2 3 2 1 1 2 1 1 2 4 5 6 2 1 2 1 1 0 0 1 1 0 1 0 1 2 2 0 1 1 0 2 2 3 4 5 6 5 4 5 2 2 3 5 2 2 2 4 4 4 9 12 9 8 4 2 6 5 1 3 8 9 8 6 7 7 7 8 9 9 7 5
1 1 0 0 1 3 2 2 2 2 1 1 1 1 2 2 2 1 1 3 1 2 3 2 3 3 5 4 0 0 1 1 0 1 1 1 1 0 0 2 3 1 1 1 2 4 2 2 3 4 6 7 6 6 4 2 1 4 4 2 3 5 6 6 5 3 9 7 7 2 1 4 6 7 6 8 7 7 9 7 5 7 7 8 8 8 6
1 0 1 3 4 3 1 1 0 2 2 1 2 3 6 4 3 3 4 0 3 4 6 3 5 3 5 2 1 1 1 1 1 1 0 1 1 1 2 2 1 1 0 1 2 2 2 4 6 6 7 7 6 6 4 4 2 2 2 3 2 4 2 5 5 3 5 6 3 2 5 5 6 7 7 7 7 8 7 6 5 6 8 9 8 7 6
1 1 0 1 1 3 0 0 2 2 1 4 5 6 6 4 2 2 2 2 6 3 3 2 3 2 3 4 1 1 0 1 0 1 1 1 1 2 1 2 2 2 3 3 1 2 4 5 5 5 7 7 6 5 5 5 4 5 7 3 3 3 2 4 5 5 4 5 5 6 5 3 5 5 6 8 7 5 5 4 6 7 8 8 6 7 8
0 1 1 1 2 1 0 3 1 4 3 3 6 5 4 1 3 4 4 2 1 3 5 5 6 6 4 1 2 2 1 0 1 2 1 1 1 1 1 1 1 1 1 3 4 3 5 5 6 6 5 5 5 3 5 6 6 6 1 1 2 3 3 4 5 5 5 6 5 5 5 5 7 7 6 7 7 6 6 6 8 8 8 8 8 8 9
1 0 1 1 1 1 2 3 6 6 7 6 6 5 5 6 4 3 3 1 4 4 3 2 2 0 3 3 1 0 1 0 2 2 1 1 1 1 2 2 3 3 1 1 5 4 5 6 6 6 4 4 4 2 1 2 2 3 5 4 3 2 2 4 5 5 5 5 4 5 6 6 6 6 3 4 7 6 5 7 9 8 8 9 9 9 8
0 1 1 0 3 4 5 4 2 5 6 6 6 5 4 4 5 4 2 2 3 3 5 3 1 1 2 1 2 2 1 1 0 1 2 2 1 1 1 3 1 3 6 4 5 5 5 6 6 4 4 3 4 5 4 4 3 2 2 2 1 1 2 4 5 5 5 4 5 7 6 5 6 7 7 7 5 4 6 8 9 9 9 9 9 9 9
1 1 3 3 4 4 2 2 2 5 8 7 7 4 2 4 2 3 2 1 2 5 3 2 2 1 2 3 1 1 1 1 1 1 1 2 1 2 1 3 4 3 6 6 5 4 3 4 4 4 4 6 6 5 4 3 4 4 3 3 3 2 3 4 5 4 5 5 5 6 5 4 5 6 5 5 6 8 10 9 8 8 9 8 8 9 9
0 0 2 3 3 5 6 6 5 7 8 9 7 4 0 4 2 3 2 3 3 4 2 2 1 2 1 0 1 1 2 1 0 0 1 0 0 2 2 4 6 6 5 6 6 6 5 2 2 3 4 4 5 5 6 5 5 6 6 7 6 4 6 6 4 3 4 5 6 7 7 6 6 5 5 7 8 9 9 8 7 8 8 8 8 8 8
Wind_Direction
354 353 352 352 352 351 349 348 349 356 352 10 354 327 18 33 254 258 285 240 110 69 339 305 356 256 259 265 261 261 263 256 270 291 348 346 29 1 356 348 345 357 343 336 313 340 288 285 253 226 308 292 18 343 340 278 226 178 222 194 206 155 136 173 275 303 295 309 298 239 249 147 80 213 152 136 188 185 189 191 190 122 228 62 28 52 252
356 355 354 354 354 352 350 349 348 353 10 337 301 30 49 307 280 322 324 297 38 71 354 330 328 312 306 320 305 312 312 343 350 332 7 24 12 18 328 345 4 313 353 360 348 356 321 318 12 341 12 338 348 7 343 349 184 135 207 199 172 199 270 132 159 3 348 337 354 334 338 311 159 188 217 191 208 187 191 98 69 107 224 168 123 172 257
358 358 357 357 355 354 352 350 348 348 354 360 206 26 275 281 251 235 307 4 37 71 334 5 339 335 316 327 339 341 342 1 360 357 22 23 114 339 17 316 340 2 1 12 4 27 16 297 29 6 12 333 1 1 334 0 29 353 334 315 184 179 183 135 146 188 206 260 13 245 255 240 267 182 172 203 219 244 299 201 237 105 247 95 122 186 255
0 0 359 358 358 356 355 352 349 347 345 356 118 249 40 15 25 320 342 3 357 53 348 48 357 330 344 336 319 337 336 348 16 16 11 8 349 104 255 2 23 5 353 3 1 4 7 28 332 14 353 354 16 338 323 357 9 8 9 11 347 148 165 127 152 160 188 198 207 236 160 8 329 262 192 214 235 214 134 102 83 165 195 143 234 147 146
2 3 360 360 359 359 357 355 350 347 341 349 103 356 75 322 56 353 339 328 22 358 330 1 1 343 321 300 306 336 334 321 13 1 14 345 11 44 46 31 28 351 345 359 341 352 355 6 24 10 356 333 321 326 357 350 14 5 7 356 339 56 199 222 147 182 200 190 211 194 132 224 258 243 225 211 221 175 128 165 229 173 92 195 232 164 147
4 4 2 1 2 1 360 358 354 348 343 339 11 45 9 54 315 57 306 253 303 352 346 345 324 314 327 305 334 352 357 13 7 344 26 344 21 8 4 37 49 359 345 331 355 353 358 31 5 343 13 347 346 347 335 11 11 9 1 349 7 314 126 360 124 284 236 200 230 237 183 214 221 237 238 252 228 194 191 203 189 157 157 185 202 179 163
5 4 2 3 4 3 2 1 357 353 342 341 47 63 358 59 346 41 9 43 310 227 269 295 293 301 316 286 9 7 29 20 352 346 338 11 18 8 359 4 14 19 358 17 27 12 0 0 356 10 341 4 339 348 335 343 7 8 352 346 68 5 329 208 175 184 336 304 238 235 213 193 197 249 243 230 234 211 186 167 157 179 178 174 168 180 176
5 4 2 6 5 5 5 2 1 356 344 331 62 44 22 14 14 329 350 293 279 284 298 295 312 325 360 36 3 6 20 20 360 13 26 11 357 6 15 347 350 10 25 49 36 11 9 329 338 337 345 339 30 322 253 321 329 357 345 332 339 45 314 324 310 55 323 315 352 11 335 232 281 282 260 174 222 284 209 170 165 79 37 139 154 167 195
6 6 6 7 7 6 6 6 5 0 347 43 30 56 28 303 7 317 320 334 294 311 332 342 337 25 14 23 2 1 8 18 353 338 24 27 350 4 2 356 334 23 30 23 6 352 333 321 317 294 332 304 305 360 286 2 317 323 328 345 339 31 320 344 3 38 322 315 350 320 10 17 336 285 306 322 8 305 271 154 195 155 156 153 148 156 204
4 5 6 8 8 7 7 8 7 7 355 62 3 37 338 309 249 323 213 273 295 348 327 335 360 37 5 12 2 355 355 11 16 352 355 8 7 7 29 23 9 21 16 5 341 324 314 301 287 273 267 237 265 224 256 277 280 305 302 312 305 1 360 351 341 32 273 270 8 1 24 36 9 330 314 284 266 234 223 233 164 180 152 144 170 197 193
4 6 6 7 7 7 8 9 8 11 12 32 19 5 1 15 338 345 356 61 314 15 345 9 28 4 348 12 5 12 12 11 24 22 323 355 3 19 37 32 29 360 11 329 307 300 298 283 270 253 260 266 258 256 248 264 262 239 276 315 290 21 25 310 252 261 265 300 348 35 48 39 247 216 302 359 354 317 306 271 187 176 161 189 174 182 146
5 6 6 6 5 5 7 8 9 11 16 358 260 277 324 326 321 16 10 55 279 349 21 41 2 339 2 356 17 13 7 5 356 6 353 336 347 25 29 28 22 357 312 305 305 311 306 278 297 296 276 279 273 255 245 244 265 253 232 237 274 297 311 284 249 358 311 347 19 42 19 236 241 323 307 4 337 5 338 302 199 187 202 155 168 129 149
4 5 7 7 6 6 6 6 8 11 10 1 17 17 315 330 32 10 7 62 313 331 359 335 326 338 352 2 16 10 353 350 355 351 351 358 350 33 18 5 357 314 308 307 314 323 342 326 321 279 287 300 290 261 233 240 247 258 257 230 216 264 304 278 341 291 344 29 39 100 238 238 281 313 22 359 2 348 2 14 350 189 186 174 171 168 162
3 6 8 9 9 10 9 6 5 8 9 7 356 337 316 340 37 17 36 30 319 292 298 289 343 354 350 357 12 355 357 1 347 357 2 351 1 28 0 353 325 304 308 301 302 344 343 10 345 355 334 340 340 7 259 230 227 236 250 248 224 225 248 5 286 330 129 183 129 231 282 344 353 16 10 356 324 315 333 256 330 354 310 206 121 119 151
3 6 8 8 9 10 10 9 7 5 5 5 348 331 346 341 11 76 303 81 327 289 345 38 336 329 328 333 12 11 6 350 360 348 326 333 16 24 337 327 328 332 328 342 345 14 21 3 9 351 326 30 13 303 307 11 304 254 248 234 218 191 184 244 99 293 115 93 3 356 21 359 292 325 316 311 292 273 272 118 342 353 2 151 139 147 144
3 5 6 7 7 9 9 8 8 5 5 359 8 348 296 320 328 26 40 114 346 3 13 5 355 310 327 348 351 27 1 354 342 320 343 351 351 349 346 347 339 336 0 350 345 19 339 60 282 15 296 321 288 301 326 328 330 311 341 288 214 160 145 165 138 238 348 56 120 215 173 234 303 325 320 313 318 311 26 79 357 314 8 341 165 150 155
2 3 6 5 6 7 6 7 5 3 4 7 343 326 282 342 15 351 10 12 55 235 281 339 359 320 347 348 354 5 4 5 349 4 340 344 338 345 336 342 330 5 4 4 358 24 22 330 261 239 272 300 3 298 307 20 329 336 343 18 4 237 34 98 111 98 205 132 118 233 234 38 332 314 314 313 313 336 74 48 293 313 336 342 197 136 140
0 3 4 4 5 5 5 5 5 4 2 358 357 303 291 316 359 337 31 37 331 285 248 31 359 5 21 1 294 284 338 5 355 320 258 293 342 354 331 335 348 7 8 37 351 31 1 4 11 345 298 287 285 35 4 305 339 321 335 321 341 16 353 133 206 176 217 151 224 308 336 354 336 319 310 315 322 62 62 278 269 309 317 307 237 157 146
360 2 3 2 3 3 4 4 4 4 4 1 348 338 285 337 340 356 353 331 16 290 282 324 269 241 326 336 259 307 10 322 294 2 326 350 345 305 292 288 12 349 4 353 353 32 5 342 322 2 7 315 8 22 302 2 309 310 3 14 7 14 340 319 53 182 187 202 137 213 135 164 331 316 326 353 54 28 304 298 308 299 294 40 90 160 155
358 360 1 1 0 0 1 3 2 3 1 1 359 297 277 295 325 1 14 353 322 288 286 278 234 297 360 342 337 350 336 343 8 32 342 340 284 331 10 7 331 352 341 0 35 351 25 348 328 342 16 313 311 277 4 286 334 40 323 301 86 333 38 353 9 303 26 27 85 112 232 309 349 318 351 14 77 223 272 306 300 287 296 101 169 162 189
354 357 358 357 357 357 358 359 360 0 358 1 356 341 328 307 360 352 31 12 310 319 304 274 248 294 296 272 254 259 253 253 284 330 277 299 276 33 41 337 301 341 3 1 6 343 344 323 351 338 283 309 296 27 342 296 314 300 107 294 69 323 73 359 327 9 322 160 146 184 208 256 329 360 91 262 175 237 278 341 329 326 342 57 157 228 173
350 352 353 353 352 352 354 355 355 356 356 356 353 329 277 292 335 320 329 298 214 216 244 281 295 281 271 255 253 236 231 238 244 226 272 299 309 144 195 209 271 21 266 333 5 344 351 324 304 356 337 312 2 302 291 24 331 285 326 39 60 358 122 179 225 300 57 268 198 239 220 250 303 359 224 215 233 283 8 18 357 337 326 315 180 228 225
348 349 350 350 349 348 348 350 351 351 352 352 356 351 310 307 314 319 315 304 254 258 261 277 277 268 266 255 234 235 244 234 247 245 218 237 296 349 138 110 313 237 162 137 164 196 239 313 271 263 305 259 296 313 331 172 262 349 339 314 227 116 236 221 146 284 345 357 16 305 293 306 329 262 222 263 21 30 25 22 3 339 324 298 224 238 331
344 346 346 345 345 345 346 345 347 346 347 345 350 326 310 292 282 320 319 260 342 318 309 257 13 333 355 338 325 312 284 250 215 237 223 171 295 302 331 237 211 37 318 230 183 157 235 233 245 316 280 275 44 319 304 334 313 298 327 333 327 335 1 22 92 281 35 326 327 337 319 333 344 305 250 51 45 46 29 19 3 346 334 319 303 132 118
340 340 341 342 342 341 341 341 341 342 341 340 337 305 293 291 286 19 352 358 355 25 318 305 301 240 342 316 285 271 273 307 289 254 245 209 201 211 224 215 182 174 223 237 60 40 20 284 334 14 305 276 62 288 241 69 296 26 9 287 2 318 338 347 269 45 127 210 293 295 290 288 305 332 356 18 33 38 32 24 17 359 333 306 284 170 107
334 335 337 338 338 337 337 337 336 336 336 334 333 321 313 278 299 327 286 244 247 262 351 318 280 311 335 337 326 294 295 292 288 284 248 222 214 209 219 285 313 186 155 167 117 152 195 12 4 267 97 290 161 235 282 204 259 292 216 254 215 274 340 306 333 302 275 298 300 304 319 323 341 341 342 300 27 65 31 29 34 9 323 304 307 298 160
329 330 332 333 332 333 333 332 332 332 330 328 322 284 267 275 270 249 248 291 349 341 3 288 293 305 339 317 290 304 300 305 301 298 296 282 194 199 204 211 223 316 266 314 122 151 87 103 124 247 192 236 345 254 245 313 278 300 306 274 289 349 264 288 347 297 8 163 316 341 55 1 316 339 322 315 330 68 67 64 75 20 310 306 308 325 7
325 326 327 326 326 324 326 327 328 327 327 323 304 281 252 249 253 221 227 222 86 142 261 275 302 297 305 265 264 305 296 289 266 263 278 315 18 340 287 171 170 165 207 138 322 11 129 150 261 231 239 311 9 311 270 258 347 307 252 258 211 169 225 97 127 173 257 275 294 4 289 241 251 267 307 338 321 347 76 43 39 50 290 315 337 346 351
321 321 320 319 316 316 320 322 323 323 324 327 303 304 274 232 244 249 251 244 173 138 237 263 268 287 322 311 316 313 307 311 327 310 283 278 278 284 281 276 231 192 163 137 140 136 156 223 196 176 238 209 164 262 5 318 266 243 243 249 288 245 152 174 203 212 271 282 323 335 322 280 291 304 299 302 303 290 76 79 53 8 356 344 350 357 341
316 315 314 311 311 314 316 316 315 319 326 325 333 358 15 336 208 222 231 204 165 129 330 338 331 276 313 312 283 294 306 312 336 345 348 318 302 269 259 263 249 178 159 172 152 222 221 198 255 261 234 117 161 271 266 249 262 254 264 270 250 297 205 214 192 154 231 292 309 299 276 275 264 264 262 288 315 335 40 79 66 32 10 4 11 8 16
312 309 306 308 310 310 309 308 308 312 324 315 3 51 45 38 319 24 22 18 25 104 276 217 255 291 304 240 249 274 283 319 322 338 318 295 283 265 276 260 297 141 222 342 83 213 161 261 241 273 75 90 128 223 210 213 274 299 269 264 278 298 274 237 221 211 229 286 296 292 265 262 294 308 17 3 353 23 50 56 72 65 44 31 28 26 30
307 303 302 304 305 303 298 295 294 298 269 227 161 174 177 170 229 302 340 10 350 51 328 311 313 313 289 298 275 304 318 315 335 350 315 307 338 324 331 45 234 198 149 175 204 98 235 210 167 241 207 248 89 261 241 231 248 249 279 293 275 259 271 302 358 134 199 279 348 332 320 342 360 57 329 314 353 50 69 71 76 81 71 65 48 45 45
301 302 300 300 300 294 292 287 285 272 236 250 267 278 277 271 260 262 273 315 19 232 207 302 263 288 284 269 308 318 331 337 358 1 326 310 330 336 334 350 1 8 305 95 285 195 226 168 125 275 254 102 142 217 233 231 240 252 259 266 267 258 321 357 127 182 188 158 163 162 254 259 319 334 333 303 348 38 47 65 70 71 69 62 54 48 47
302 302 301 297 291 289 286 285 285 279 270 272 308 257 249 242 235 228 200 121 267 243 209 211 298 286 275 297 324 278 349 359 297 25 330 295 295 40 277 6 359 54 314 159 261 20 320 104 195 214 57 261 162 78 272 253 247 258 264 266 266 16 75 86 2 299 296 269 204 222 244 275 310 348 334 331 45 36 50 59 63 71 66 66 62 58 58
304 302 300 298 293 288 293 294 282 168 172 224 238 250 1 10 128 150 152 150 117 272 158 259 162 306 314 319 305 275 343 26 314 249 181 272 323 207 311 45 323 65 285 62 357 198 215 238 173 82 259 155 103 240 243 258 277 290 331 11 41 87 50 20 302 244 248 267 268 256 284 305 347 40 297 331 43 34 53 52 53 76 74 64 66 61 65
304 301 300 300 301 301 317 81 153 175 345 258 243 113 108 96 91 120 151 121 130 118 313 291 304 249 250 292 306 287 24 315 263 292 226 258 337 304 101 120 18 262 196 102 217 298 217 239 100 264 229 154 228 202 237 219 247 275 242 189 212 137 173 205 267 299 283 267 298 349 345 346 132 213 222 57 49 43 52 60 52 62 76 78 74 74 77
302 301 304 299 296 102 16 202 180 181 269 312 115 93 63 81 67 76 45 8 290 204 243 291 269 244 197 243 269 283 20 326 308 324 333 24 253 274 56 49 207 246 10 323 261 226 261 357 124 264 266 214 249 231 246 266 247 244 236 204 202 190 143 284 310 328 318 348 54 342 279 251 229 92 65 57 53 52 58 57 54 65 74 86 93 85 92
303 306 316 25 24 1 55 41 103 310 327 123 128 85 345 6 97 130 150 229 199 156 234 219 253 265 275 248 274 249 51 265 35 309 311 334 359 303 327 171 236 49 296 251 253 205 95 91 210 204 266 251 264 310 296 195 139 336 326 316 146 140 154 270 312 347 314 316 128 219 266 348 52 43 76 61 61 66 69 75 62 61 67 82 98 107 94
304 304 28 312 87 277 205 221 351 348 328 232 146 224 278 185 184 221 204 184 139 220 184 204 252 224 220 242 267 274 182 283 328 330 331 283 62 306 28 29 322 64 303 337 289 98 290 287 251 245 266 300 330 307 319 302 328 331 307 311 298 246 213 226 233 214 243 259 223 78 22 315 348 68 85 90 77 74 67 61 59 54 61 70 81 99 114
31 12 352 316 262 260 299 322 355 333 271 97 172 121 251 168 115 263 129 102 260 208 147 242 228 218 198 217 253 302 289 210 312 306 263 308 97 190 263 197 287 88 270 219 248 49 124 273 281 13 288 293 269 285 324 321 318 310 319 303 317 329 339 292 289 249 172 77 103 115 209 259 265 160 112 110 100 87 74 68 63 64 67 88 108 106 97
20 341 337 297 296 316 305 320 316 262 214 95 155 225 331 285 231 209 162 234 235 222 186 218 271 301 263 159 125 248 293 75 231 211 159 247 261 91 1 278 293 53 276 261 276 81 13 272 285 210 238 257 300 314 316 314 318 312 308 305 305 318 342 350 7 6 69 63 106 166 209 247 228 150 116 114 104 93 88 82 76 74 80 86 104 113 127
266 206 252 291 284 281 301 282 175 58 355 211 104 284 209 217 223 202 143 130 264 184 257 230 310 322 288 231 234 177 294 169 166 67 48 328 285 165 253 260 359 197 283 239 116 45 343 273 294 289 267 300 314 320 317 304 305 327 324 348 298 252 267 18 78 39 35 31 360 15 21 34 28 13 19 13 11 49 66 71 72 72 82 91 87 91 91
282 266 214 276 287 266 197 5 268 120 94 352 39 338 325 24 260 248 285 216 281 110 266 150 235 299 287 18 305 191 188 306 38 325 77 240 292 57 325 292 46 292 262 347 65 279 16 270 275 256 299 320 318 323 302 274 285 312 296 276 289 360 61 2 37 69 42 41 55 82 83 86 84 320 298 102 98 78 62 57 64 71 72 77 80 86 91
249 180 137 207 321 278 107 346 227 14 352 115 111 266 290 354 313 3 12 293 282 334 291 42 316 37 330 272 228 292 6 352 53 26 273 260 55 300 309 279 244 238 54 33 360 32 243 226 238 277 302 304 313 306 296 346 44 290 291 294 58 58 66 53 22 72 75 61 27 343 72 113 121 154 28 54 61 74 67 58 59 71 72 75 76 77 78
38 39 104 4 337 273 58 301 323 117 224 267 182 210 324 302 257 241 217 246 112 270 296 12 349 3 315 287 57 246 127 241 282 102 268 16 332 262 108 273 267 6 40 51 321 300 324 288 308 315 318 319 312 322 330 333 279 265 263 299 39 62 73 68 25 55 108 124 141 191 38 57 69 66 54 61 60 66 76 72 67 77 78 83 83 80 71
61 141 43 64 327 313 98 229 339 358 296 180 313 313 305 249 208 263 260 349 25 350 11 336 325 326 309 267 141 251 316 52 13 259 269 36 74 298 243 245 37 11 329 141 266 270 300 305 319 321 313 314 323 315 335 312 284 317 19 3 18 88 89 104 113 93 101 123 130 106 71 70 80 73 67 60 61 61 58 52 52 76 84 81 78 81 78
347 324 119 112 102 274 156 181 253 204 250 307 289 299 272 242 245 44 344 52 42 5 340 296 294 255 290 304 340 325 359 65 293 280 65 357 235 268 329 48 358 323 325 323 303 296 297 303 317 315 312 323 340 352 343 325 357 39 65 15 321 49 68 88 90 90 85 81 77 72 71 70 77 81 83 76 66 62 66 62 67 74 82 85 84 81 80
122 260 72 105 245 223 195 254 258 301 288 267 283 284 284 313 48 7 327 35 67 24 8 351 344 349 346 312 89 234 287 8 354 303 155 245 312 335 351 353 248 241 246 287 296 292 289 304 312 319 326 334 335 19 42 32 3 355 41 191 1 48 91 95 89 86 85 85 86 88 84 68 59 44 52 81 81 64 62 69 73 73 76 77 76 76 79
228 104 128 207 220 263 264 287 343 314 296 312 308 339 8 30 13 340 302 327 32 344 302 310 277 26 288 258 250 94 343 298 53 306 345 25 43 342 337 309 317 318 334 322 298 304 304 317 319 326 336 332 322 6 51 83 47 1 350 15 34 5 47 83 84 85 85 89 88 89 88 85 81 80 48 61 76 56 45 72 75 72 70 76 76 77 73
85 347 328 258 348 308 265 288 326 294 311 333 354 342 337 18 355 310 302 20 329 341 341 353 356 119 259 329 328 348 341 337 14 330 31 348 342 319 304 314 344 311 301 310 303 309 327 333 322 323 323 347 346 354 15 8 350 346 329 340 355 60 56 78 76 69 69 74 77 75 61 67 89 94 102 104 106 100 85 83 81 80 75 75 79 78 76
286 173 229 192 191 242 3 330 310 311 313 306 301 287 329 327 282 307 288 7 20 23 22 20 307 29 360 14 29 23 318 32 42 326 167 281 327 322 317 302 290 271 279 284 289 306 323 312 318 324 1 14 4 359 341 330 352 2 9 27 36 67 79 59 60 70 73 72 83 93 84 75 88 99 98 102 100 94 89 83 83 86 87 82 79 81 78
54 305 268 272 247 245 239 259 275 251 250 257 261 244 301 334 296 303 303 53 45 45 329 295 356 28 44 354 245 232 297 27 237 333 359 255 207 291 302 274 282 286 295 305 313 326 325 315 312 335 359 356 358 343 338 351 20 32 29 19 2 9 35 33 26 63 91 85 75 69 58 71 85 84 101 102 97 96 95 95 90 90 89 88 84 82 80